Simultaneous Nadir Overpasses (SNOs) Predictions

Prediction of SNOs between METOP-A and NOAA-19 Satellite Orbit:

Table of predicted SNOs for the next 14.0 days since TLE Epoch: 1/29/2016
Index Date (METOP-A) Time (METOP-A) Lat,Lon (METOP-A) SZA (METOP-A ) Date (NOAA-19) Time (NOAA-19) Lat,Lon (NOAA-19) SZA (NOAA-19 ) Distance(km) Time Diff (sec)
1 02/03/2016 07:58:47 76.02, 60.29 92.61 02/03/2016 07:57:37 76.05, 58.30 92.69 53.55 70
2 02/03/2016 08:49:34 -75.75,-133.26 87.66 02/03/2016 08:48:29 -75.75,-133.41 87.65 3.99 65
3 02/03/2016 09:40:15 75.72, 33.97 92.31 02/03/2016 09:39:32 75.72, 33.94 92.32 0.90 43
4 02/03/2016 10:30:57 -75.68,-158.81 87.74 02/03/2016 10:30:30 -75.70,-158.72 87.73 2.87 27
5 02/03/2016 11:21:37 75.70, 8.57 92.27 02/03/2016 11:21:34 75.71, 8.47 92.28 2.89 3
6 02/03/2016 12:12:19 -75.67, 175.79 87.78 02/03/2016 12:12:32 -75.69, 175.81 87.76 2.40 13
7 02/03/2016 13:02:59 75.68, -16.83 92.23 02/03/2016 13:03:35 75.65, -16.84 92.20 3.09 36
8 02/03/2016 13:53:41 -75.65, 150.39 87.82 02/03/2016 13:54:33 -75.63, 150.49 87.84 3.42 52
9 02/03/2016 14:44:23 75.57, -42.53 92.10 02/03/2016 14:45:36 75.59, -42.16 92.12 10.78 73




NCC Satellite Simultaneous Nadir Overpasses (SNOs) Prediction Service
